�������l�o���
Date,Time,MP-1(��Sv/h),MP-2(��Sv/h),MP-3(��Sv/h),MP-4(��Sv/h),MP-5(��Sv/h),MP-6(��Sv/h),MP-7(��Sv/h),����,����(m/s),���J
2017/04/21,00:00,0.377,0.232,0.392,0.362,0.329,0.190,0.161,��쐼,5.1,��
2017/04/21,00:10,0.376,0.231,0.391,0.361,0.331,0.191,0.161,�쐼,3.3,��
2017/04/21,00:20,0.375,0.231,0.390,0.360,0.330,0.191,0.161,��쐼,4.2,��
2017/04/21,00:30,0.377,0.230,0.392,0.361,0.329,0.191,0.161,��쐼,6.6,��
2017/04/21,00:40,0.377,0.230,0.391,0.359,0.329,0.191,0.162,��쐼,5.0,��
2017/04/21,00:50,0.376,0.231,0.392,0.363,0.330,0.189,0.161,��쐼,2.8,��
2017/04/21,01:00,0.378,0.231,0.390,0.359,0.330,0.191,0.161,��쐼,3.8,��
2017/04/21,01:10,0.375,0.231,0.389,0.360,0.330,0.191,0.161,��쐼,2.6,��
2017/04/21,01:20,0.375,0.230,0.391,0.362,0.329,0.190,0.161,��쐼,2.5,��
2017/04/21,01:30,0.376,0.231,0.391,0.362,0.330,0.190,0.161,��쐼,1.2,��
2017/04/21,01:40,0.375,0.230,0.390,0.360,0.331,0.190,0.162,��,0.7,��
2017/04/21,01:50,0.377,0.232,0.391,0.360,0.329,0.191,0.162,-,CALM,��
2017/04/21,02:00,0.375,0.232,0.391,0.362,0.331,0.191,0.162,-,CALM,��
2017/04/21,02:10,0.376,0.232,0.392,0.362,0.329,0.192,0.161,���k��,1.2,��
2017/04/21,02:20,0.378,0.231,0.394,0.361,0.330,0.191,0.162,-,CALM,��
2017/04/21,02:30,0.377,0.231,0.392,0.363,0.331,0.191,0.162,-,CALM,��
2017/04/21,02:40,0.380,0.231,0.392,0.361,0.328,0.190,0.162,-,CALM,��
2017/04/21,02:50,0.376,0.231,0.392,0.361,0.331,0.191,0.162,��,1.4,��
2017/04/21,03:00,0.377,0.231,0.390,0.361,0.330,0.192,0.161,��,2.0,��
2017/04/21,03:10,0.377,0.231,0.393,0.362,0.330,0.191,0.161,��,1.2,��
2017/04/21,03:20,0.376,0.231,0.392,0.360,0.331,0.191,0.162,��,1.3,��
2017/04/21,03:30,0.378,0.232,0.389,0.362,0.329,0.191,0.162,��쓌,1.5,��
2017/04/21,03:40,0.375,0.231,0.392,0.361,0.331,0.191,0.161,��쓌,1.1,��
2017/04/21,03:50,0.374,0.232,0.392,0.361,0.329,0.191,0.162,��쓌,1.6,��
2017/04/21,04:00,0.378,0.232,0.392,0.362,0.328,0.191,0.163,��쓌,2.9,��
2017/04/21,04:10,0.376,0.231,0.392,0.360,0.330,0.191,0.162,��,3.1,��
2017/04/21,04:20,0.377,0.231,0.392,0.364,0.330,0.191,0.162,-,CALM,��
2017/04/21,04:30,0.378,0.232,0.391,0.361,0.330,0.192,0.162,��쓌,1.5,��
2017/04/21,04:40,0.374,0.231,0.392,0.360,0.330,0.191,0.163,��쓌,3.1,��
2017/04/21,04:50,0.376,0.231,0.390,0.361,0.328,0.191,0.162,��쓌,1.6,��
2017/04/21,05:00,0.378,0.231,0.391,0.361,0.331,0.191,0.161,��쓌,3.1,��
2017/04/21,05:10,0.376,0.230,0.393,0.359,0.329,0.192,0.161,��,3.1,��
2017/04/21,05:20,0.377,0.233,0.392,0.361,0.329,0.192,0.162,���쓌,0.8,��
2017/04/21,05:30,0.377,0.232,0.392,0.361,0.331,0.191,0.163,���쓌,1.0,��
2017/04/21,05:40,0.376,0.231,0.392,0.362,0.330,0.191,0.161,�k�k��,1.0,��
2017/04/21,05:50,0.378,0.231,0.393,0.364,0.331,0.192,0.163,�k�k��,2.2,��
2017/04/21,06:00,0.375,0.231,0.393,0.360,0.331,0.192,0.162,�k,3.4,��
2017/04/21,06:10,0.377,0.231,0.393,0.363,0.329,0.192,0.161,�k,2.4,��
2017/04/21,06:20,0.377,0.231,0.391,0.361,0.330,0.191,0.162,�k�k��,1.3,��
2017/04/21,06:30,0.377,0.232,0.396,0.360,0.330,0.191,0.162,�k,1.8,�L
2017/04/21,06:40,0.376,0.232,0.392,0.363,0.330,0.192,0.163,�k,5.3,�L
2017/04/21,06:50,0.376,0.231,0.391,0.360,0.331,0.191,0.162,�k,4.8,�L
2017/04/21,07:00,0.378,0.233,0.394,0.363,0.330,0.192,0.163,�k,4.1,�L
2017/04/21,07:10,0.376,0.232,0.392,0.362,0.330,0.191,0.161,�k,4.5,�L
2017/04/21,07:20,0.376,0.232,0.391,0.361,0.330,0.192,0.163,�k,4.5,�L
2017/04/21,07:30,0.378,0.232,0.393,0.362,0.332,0.192,0.162,�k,3.7,��
2017/04/21,07:40,0.376,0.232,0.390,0.361,0.330,0.193,0.162,�k,3.6,��
2017/04/21,07:50,0.377,0.231,0.394,0.360,0.330,0.192,0.163,�k,3.1,��
2017/04/21,08:00,0.378,0.232,0.391,0.361,0.332,0.193,0.162,�k�k��,1.8,��
2017/04/21,08:10,0.376,0.232,0.394,0.360,0.328,0.191,0.163,�k,1.4,��
2017/04/21,08:20,0.377,0.231,0.392,0.359,0.331,0.191,0.162,�k�k��,1.1,��
2017/04/21,08:30,0.374,0.231,0.390,0.359,0.328,0.192,0.161,�k�k��,1.1,��
2017/04/21,08:40,0.378,0.231,0.392,0.363,0.329,0.191,0.162,��,1.2,��
2017/04/21,08:50,0.375,0.233,0.390,0.360,0.327,0.191,0.160,��쐼,1.4,��
2017/04/21,09:00,0.377,0.231,0.392,0.362,0.331,0.190,0.160,��쐼,2.5,��
2017/04/21,09:10,0.374,0.231,0.391,0.358,0.327,0.192,0.160,��,3.8,��
2017/04/21,09:20,0.376,0.231,0.393,0.358,0.330,0.191,0.159,��,5.6,��
2017/04/21,09:30,0.373,0.230,0.390,0.360,0.327,0.190,0.160,��,6.3,��
2017/04/21,09:40,0.375,0.231,0.393,0.357,0.328,0.191,0.160,��쓌,4.0,��
2017/04/21,09:50,0.375,0.231,0.388,0.363,0.330,0.190,0.161,�쓌,2.8,��
2017/04/21,10:00,0.375,0.232,0.393,0.358,0.327,0.191,0.160,��쓌,3.9,��
2017/04/21,10:10,0.376,0.230,0.389,0.360,0.332,0.191,0.160,��쓌,4.3,��
2017/04/21,10:20,0.375,0.231,0.392,0.361,0.329,0.191,0.160,��쓌,4.3,��
2017/04/21,10:30,0.376,0.230,0.387,0.360,0.329,0.190,0.160,��쓌,2.9,��
2017/04/21,10:40,0.374,0.230,0.391,0.360,0.328,0.191,0.159,�쓌,2.3,��
2017/04/21,10:50,0.376,0.231,0.389,0.359,0.329,0.191,0.161,�쓌,0.8,�L
2017/04/21,11:00,0.376,0.230,0.392,0.362,0.330,0.191,0.160,�쓌,1.3,�L
2017/04/21,11:10,0.376,0.232,0.391,0.361,0.330,0.191,0.160,���k��,1.8,��
2017/04/21,11:20,0.378,0.231,0.394,0.363,0.329,0.190,0.160,���k��,2.1,��
2017/04/21,11:30,0.376,0.231,0.390,0.361,0.331,0.190,0.161,�k�k��,3.0,�L
2017/04/21,11:40,0.378,0.232,0.391,0.361,0.329,0.190,0.161,�k�k��,1.3,��
2017/04/21,11:50,0.376,0.232,0.394,0.362,0.331,0.191,0.161,�k�k��,0.9,��
2017/04/21,12:00,0.376,0.231,0.391,0.360,0.329,0.191,0.160,�k�k��,1.0,��
2017/04/21,12:10,0.377,0.232,0.394,0.363,0.330,0.190,0.161,�k�k��,0.6,�L
2017/04/21,12:20,0.376,0.230,0.390,0.359,0.328,0.189,0.161,��,0.8,��
2017/04/21,12:30,0.377,0.231,0.392,0.362,0.331,0.190,0.160,��,2.2,��
2017/04/21,12:40,0.376,0.231,0.391,0.360,0.328,0.190,0.161,��쓌,2.5,�L
2017/04/21,12:50,0.376,0.230,0.390,0.361,0.329,0.190,0.160,��,3.9,�L
2017/04/21,13:00,0.377,0.231,0.391,0.360,0.329,0.190,0.161,��,4.1,�L
2017/04/21,13:10,0.377,0.230,0.389,0.363,0.330,0.191,0.160,��,4.4,�L
2017/04/21,13:20,0.378,0.231,0.391,0.359,0.327,0.191,0.161,��,4.6,��
2017/04/21,13:30,0.374,0.232,0.389,0.361,0.329,0.190,0.160,��,5.3,�L
2017/04/21,13:40,0.376,0.230,0.392,0.358,0.328,0.191,0.161,��쐼,5.1,�L
2017/04/21,13:50,0.375,0.231,0.389,0.361,0.330,0.190,0.160,��쐼,5.2,�L
2017/04/21,14:00,0.377,0.230,0.391,0.358,0.328,0.192,0.160,��쐼,4.7,�L
2017/04/21,14:10,0.375,0.228,0.389,0.361,0.329,0.191,0.159,��쐼,5.3,�L
2017/04/21,14:20,0.376,0.231,0.389,0.359,0.331,0.190,0.161,��쐼,5.0,�L
2017/04/21,14:30,0.376,0.228,0.389,0.359,0.326,0.190,0.161,��쐼,5.6,��
2017/04/21,14:40,0.375,0.229,0.388,0.360,0.330,0.191,0.161,��,5.1,��
2017/04/21,14:50,0.376,0.230,0.390,0.357,0.327,0.191,0.160,��,5.4,��
2017/04/21,15:00,0.371,0.231,0.384,0.359,0.329,0.190,0.160,��,7.3,��
2017/04/21,15:10,0.374,0.230,0.382,0.357,0.326,0.190,0.158,��,7.1,��
2017/04/21,15:20,0.372,0.229,0.382,0.360,0.328,0.189,0.159,��,7.4,��
2017/04/21,15:30,0.376,0.229,0.389,0.357,0.326,0.190,0.160,��쓌,7.6,��
2017/04/21,15:40,0.372,0.229,0.386,0.359,0.328,0.190,0.160,��,7.1,��
2017/04/21,15:50,0.375,0.228,0.390,0.356,0.325,0.191,0.159,��쓌,5.8,��
2017/04/21,16:00,0.371,0.230,0.385,0.357,0.328,0.190,0.160,��,5.5,��
2017/04/21,16:10,0.376,0.229,0.389,0.358,0.325,0.190,0.161,��,5.9,��
2017/04/21,16:20,0.372,0.230,0.386,0.358,0.329,0.189,0.159,��쓌,4.8,��
2017/04/21,16:30,0.373,0.229,0.388,0.356,0.324,0.190,0.161,��,4.3,��
2017/04/21,16:40,0.372,0.230,0.387,0.357,0.328,0.190,0.160,��,4.6,��
2017/04/21,16:50,0.375,0.229,0.387,0.357,0.325,0.190,0.159,��쓌,3.8,��
2017/04/21,17:00,0.374,0.229,0.387,0.358,0.330,0.190,0.159,��,3.3,��
2017/04/21,17:10,0.373,0.229,0.387,0.358,0.327,0.190,0.159,��쓌,4.2,��
2017/04/21,17:20,0.375,0.228,0.387,0.357,0.328,0.190,0.160,��,3.1,��
2017/04/21,17:30,0.373,0.229,0.386,0.360,0.325,0.190,0.160,��,3.5,��
2017/04/21,17:40,0.376,0.229,0.387,0.356,0.329,0.190,0.159,��,3.2,��
2017/04/21,17:50,0.373,0.228,0.386,0.360,0.327,0.190,0.160,��,3.1,��
2017/04/21,18:00,0.375,0.229,0.387,0.356,0.328,0.190,0.159,��쐼,2.9,��
2017/04/21,18:10,0.372,0.228,0.386,0.360,0.328,0.189,0.161,��,3.0,��
2017/04/21,18:20,0.375,0.230,0.388,0.358,0.328,0.189,0.159,��,1.9,��
2017/04/21,18:30,0.373,0.229,0.387,0.358,0.327,0.190,0.160,��,2.0,��
2017/04/21,18:40,0.373,0.230,0.388,0.359,0.327,0.189,0.159,��쐼,1.7,�L
2017/04/21,18:50,0.374,0.229,0.389,0.359,0.328,0.192,0.160,�쐼,2.2,�L
2017/04/21,19:00,0.374,0.231,0.387,0.358,0.329,0.192,0.162,��,5.1,�L
2017/04/21,19:10,0.376,0.229,0.390,0.360,0.330,0.192,0.161,��,3.4,�L
2017/04/21,19:20,0.373,0.232,0.388,0.361,0.330,0.192,0.162,��쐼,3.9,��
2017/04/21,19:30,0.377,0.230,0.387,0.360,0.330,0.192,0.162,��쐼,3.6,��
2017/04/21,19:40,0.374,0.230,0.391,0.361,0.329,0.192,0.161,�k��,3.1,��
2017/04/21,19:50,0.375,0.230,0.387,0.359,0.327,0.192,0.161,�k�k��,3.1,��
2017/04/21,20:00,0.374,0.229,0.390,0.359,0.330,0.191,0.161,�k,2.3,��
2017/04/21,20:10,0.372,0.229,0.388,0.359,0.327,0.191,0.161,�k��,1.4,��
2017/04/21,20:20,0.375,0.230,0.386,0.358,0.328,0.190,0.161,�k�k��,1.8,��
2017/04/21,20:30,0.373,0.230,0.388,0.361,0.328,0.192,0.159,�k�k��,1.7,��
2017/04/21,20:40,0.374,0.228,0.386,0.358,0.327,0.191,0.160,�k�k��,2.2,��
2017/04/21,20:50,0.373,0.230,0.389,0.358,0.329,0.190,0.159,�k�k��,3.3,��
2017/04/21,21:00,0.373,0.230,0.387,0.359,0.326,0.189,0.160,�k�k��,3.0,��
2017/04/21,21:10,0.375,0.230,0.389,0.358,0.327,0.191,0.160,�k��,2.7,��
2017/04/21,21:20,0.374,0.230,0.390,0.360,0.327,0.191,0.159,�k��,4.4,��
2017/04/21,21:30,0.375,0.230,0.386,0.358,0.327,0.190,0.160,�k�k��,4.4,��
2017/04/21,21:40,0.372,0.229,0.389,0.359,0.329,0.191,0.160,�k�k��,4.0,��
2017/04/21,21:50,0.375,0.228,0.387,0.358,0.327,0.191,0.160,�k,4.1,��
2017/04/21,22:00,0.376,0.230,0.385,0.357,0.329,0.190,0.160,�k,3.4,��
2017/04/21,22:10,0.372,0.230,0.389,0.360,0.327,0.190,0.160,�k�k��,3.9,��
2017/04/21,22:20,0.375,0.230,0.388,0.358,0.325,0.190,0.159,�k,1.9,��
2017/04/21,22:30,0.374,0.228,0.386,0.357,0.328,0.190,0.160,�k�k��,1.9,��
2017/04/21,22:40,0.374,0.229,0.389,0.359,0.328,0.189,0.160,�k�k��,1.7,��
2017/04/21,22:50,0.374,0.229,0.387,0.359,0.327,0.190,0.160,�k��,1.7,��
2017/04/21,23:00,0.375,0.230,0.387,0.358,0.330,0.191,0.160,�k,1.7,��
2017/04/21,23:10,0.376,0.229,0.388,0.358,0.328,0.191,0.161,�k,1.6,��
2017/04/21,23:20,0.373,0.230,0.388,0.358,0.328,0.190,0.160,�k,2.2,��
2017/04/21,23:30,0.375,0.230,0.387,0.360,0.329,0.190,0.161,�k�k��,2.3,��
2017/04/21,23:40,0.374,0.229,0.388,0.357,0.327,0.191,0.160,�k�k��,2.8,��
2017/04/21,23:50,0.374,0.229,0.386,0.358,0.329,0.190,0.160,�k,3.7,��
